CDT,Max TemperatureF,Mean TemperatureF,Min TemperatureF,Max Dew PointF,MeanDew PointF,Min DewpointF,Max Humidity, Mean Humidity, Min Humidity, Max Sea Level PressureIn, Mean Sea Level PressureIn, Min Sea Level PressureIn, Max VisibilityMiles, Mean VisibilityMiles, Min VisibilityMiles, Max Wind SpeedMPH, Mean Wind SpeedMPH, Max Gust SpeedMPH,PrecipitationIn, CloudCover, Events, WindDirDegrees
2011-9-1,87,78,69,73,70,66,94,79,55,29.85,29.75,29.69,10,6,2,17,8,23,0.06,2,Rain-Thunderstorm,129
2011-9-2,75,68,62,66,58,54,88,70,50,29.99,29.92,29.76,10,10,10,18,8,24,0.00,1,Rain,328
2011-9-3,69,63,57,61,52,45,94,68,40,30.04,29.94,29.88,10,10,7,23,7,32,0.00,4,Rain-Thunderstorm,281
2011-9-4,66,57,48,48,45,39,87,67,40,30.22,30.15,30.05,10,10,10,16,11,23,0.00,2,,319
2011-9-5,69,56,44,50,44,39,94,64,33,30.23,30.18,30.10,10,8,0,13,4,16,0.00,1,Fog,180
2011-9-6,73,60,46,52,46,43,87,61,38,30.17,30.15,30.12,10,10,10,21,9,26,0.00,0,,158
2011-9-7,78,63,48,55,49,45,93,62,30,30.32,30.27,30.20,10,10,10,8,4,,0.00,0,,158
2011-9-8,80,68,55,57,53,46,94,62,30,30.35,30.30,30.21,10,10,0,9,2,,0.00,1,Fog,347
2011-9-9,87,73,59,55,52,45,82,53,24,30.20,30.14,30.07,10,10,10,15,7,20,0.00,0,,351
2011-9-10,86,72,57,57,52,45,88,54,23,30.12,30.08,30.03,10,10,10,9,5,,0.00,0,,343
2011-9-11,87,72,57,57,53,45,94,60,23,30.04,29.99,29.92,10,10,10,12,6,,0.00,0,,231
2011-9-12,84,72,59,55,51,41,77,55,29,29.96,29.82,29.72,10,10,10,26,11,38,0.00,0,,240
2011-9-13,69,56,44,45,39,34,93,57,27,30.08,30.04,29.99,10,10,10,20,9,26,0.00,2,,290
2011-9-14,55,46,37,30,26,19,65,47,25,30.37,30.29,30.16,10,10,10,20,12,28,0.00,1,,328
2011-9-15,57,44,32,36,27,16,87,57,20,30.45,30.38,30.28,10,10,7,10,2,,0.00,0,,153
2011-9-16,55,48,41,37,35,32,76,60,41,30.28,30.23,30.16,10,10,10,18,8,25,0.00,7,,151
2011-9-17,64,53,42,43,41,37,87,64,40,30.17,30.11,30.03,10,10,10,23,12,29,0.00,8,,138
2011-9-18,59,55,51,54,49,43,94,84,63,30.05,29.98,29.94,10,8,0,14,8,18,0.25,7,Fog-Rain,174
2011-9-19,73,60,46,48,42,30,94,59,20,30.06,29.98,29.89,10,9,2,12,7,16,0.00,0,,229
2011-9-20,60,56,51,50,43,36,88,61,39,29.85,29.69,29.58,10,10,5,30,16,39,0.04,5,Rain-Thunderstorm,190
2011-9-21,53,50,46,50,45,43,93,86,82,30.10,29.88,29.65,10,7,2,25,17,33,0.10,8,Rain,296
2011-9-22,57,50,42,43,38,32,93,68,38,30.17,30.13,30.10,10,10,7,14,6,16,0.02,4,Rain,311
2011-9-23,64,50,35,45,35,28,93,64,26,30.18,30.12,30.04,10,8,0,8,3,,0.00,1,Fog,138
2011-9-24,64,50,37,45,39,36,93,71,40,30.08,30.05,30.01,10,9,2,12,7,17,0.00,0,,105
2011-9-25,66,52,37,45,39,36,93,67,35,30.04,30.01,29.97,10,8,0,13,6,18,0.00,0,Fog,100
2011-9-26,73,60,46,48,45,39,87,63,29,29.99,29.96,29.90,10,10,10,15,9,21,0.00,1,,25
2011-9-27,75,60,46,50,44,37,87,57,25,29.99,29.95,29.91,10,10,7,9,5,,0.00,0,,341
2011-9-28,82,65,48,48,43,37,87,49,20,29.89,29.84,29.78,10,10,10,9,3,,0.00,0,,230
2011-9-29,66,60,53,45,41,36,72,51,32,30.19,29.97,29.81,10,10,7,32,17,45,0.00,1,Rain,309
2011-9-30,62,50,39,41,34,25,87,57,24,30.29,30.24,30.19,10,10,5,13,8,,0.00,0,,359